Weather History for Luverne, MN

Change the Weather History Date:

Thursday, October 4, 2012

  Actual Average (KFSD) Record (KFSD)
Temperature  
Mean Temperature 44 °F 53 °F  
Max Temperature 50 °F 65 °F 92 °F (1905)
Min Temperature 37 °F 41 °F 22 °F (1952)
Degree Days  
Heating Degree Days 20 12  
Month to date heating degree days 47  
Since 1 July heating degree days 251  
Cooling Degree Days 0 0  
Month to date cooling degree days 0  
Year to date cooling degree days 685  
Moisture  
Dew Point 31 °F    
Average Humidity 61    
Maximum Humidity 81    
Minimum Humidity 43    
Precipitation  
Precipitation 0.00 in 0.09 in 2.36 in (1998)
Month to date precipitation 0.36  
Year to date precipitation 22.52  
Snow  
Snow 0.00 in 0.00 in 0.00 in ()
Month to date snowfall 0.0  
Since 1 July snowfall T  
Since 1 September snowfall T  
Snow Depth -    
Sea Level Pressure  
Sea Level Pressure 30.15 in    
Wind  
Wind Speed 22 mph (NW)    
Max Wind Speed 38 mph    
Max Gust Speed 48 mph    
Visibility 10 miles    
Events      
T = Trace of Precipitation, MM = Missing Value Source: NWS Daily Summary

Daily Weather History Graph

Daily Weather History Graph

Search for Another Location

Airport:

Trip Planner

Search our weather history database for the weather conditions in past years. The results will help you decide how hot, cold, wet, or windy it might be!

Date:

Astronomy

Oct. 04, 2012 Rise Set
Actual Time 7:26 AM CDT 6:59 PM CDT
Civil Twilight 6:57 AM CDT 7:28 PM CDT
Nautical Twilight 6:24 AM CDT 8:01 PM CDT
Astronomical Twilight 5:51 AM CDT 8:34 PM CDT
Moon 9:27 PM CDT (10/4) 11:52 AM CDT (10/4)
Length of Visible Light 12h 30m
Length of Day
11h 33m
Waning Gibbous, 82% of the Moon is Illuminated
Oct 4
Waning Gibbous
Oct 8
Last Quarter
Oct 15
New
Oct 21
First Quarter
Oct 29
Full

Hourly Weather History & Observations

Time (CDT) Temp. Windchill Dew Point Humidity Pressure Visibility Wind Dir Wind Speed Gust Speed Precip Events Conditions
12:15 AM 50.0 °F - 37.4 °F 62% 29.90 in 10.0 mi West 21.9 mph 29.9 mph N/A   Clear
12:34 AM 50.0 °F - 39.2 °F 66% 29.88 in 10.0 mi WNW 20.7 mph 35.7 mph N/A   Clear
12:54 AM 50.0 °F - 39.2 °F 66% 29.90 in 7.0 mi WNW 32.2 mph 40.3 mph N/A   Scattered Clouds
1:15 AM 48.2 °F - 37.4 °F 66% 29.92 in 7.0 mi WNW 32.2 mph 43.7 mph N/A   Mostly Cloudy
1:34 AM 46.4 °F 37.2 °F 37.4 °F 71% 29.94 in 7.0 mi WNW 29.9 mph 42.6 mph N/A   Overcast
1:54 AM 46.4 °F 36.1 °F 37.4 °F 71% 29.96 in 7.0 mi WNW 38.0 mph 46.0 mph N/A   Mostly Cloudy
2:14 AM 44.6 °F 35.3 °F 37.4 °F 76% 30.00 in 10.0 mi WNW 26.5 mph 48.3 mph N/A   Scattered Clouds
2:34 AM 44.6 °F 35.5 °F 37.4 °F 76% 29.98 in 10.0 mi WNW 25.3 mph 34.5 mph N/A   Mostly Cloudy
2:55 AM 44.6 °F 37.2 °F 37.4 °F 76% 29.98 in 10.0 mi WNW 17.3 mph 32.2 mph N/A   Overcast
3:14 AM 44.6 °F 35.7 °F 35.6 °F 71% 30.00 in 10.0 mi WNW 24.2 mph 31.1 mph N/A   Overcast
3:34 AM 44.6 °F 35.7 °F 35.6 °F 71% 30.00 in 10.0 mi WNW 24.2 mph 32.2 mph N/A   Overcast
3:55 AM 42.8 °F 32.7 °F 35.6 °F 76% 30.02 in 10.0 mi WNW 27.6 mph 33.4 mph N/A   Overcast
4:14 AM 41.0 °F 30.7 °F 33.8 °F 76% 30.03 in 10.0 mi WNW 25.3 mph 34.5 mph N/A   Overcast
4:34 AM 41.0 °F 30.7 °F 33.8 °F 76% 30.02 in 10.0 mi WNW 25.3 mph 32.2 mph N/A   Overcast
4:55 AM 41.0 °F 32.8 °F 33.8 °F 76% 30.02 in 10.0 mi WNW 16.1 mph 27.6 mph N/A   Overcast
5:14 AM 41.0 °F 31.6 °F 33.8 °F 76% 30.04 in 10.0 mi WNW 20.7 mph 27.6 mph N/A   Mostly Cloudy
5:55 AM 41.0 °F 32.5 °F 33.8 °F 76% 30.06 in 10.0 mi NW 17.3 mph 29.9 mph N/A   Mostly Cloudy
6:14 AM 41.0 °F 32.5 °F 33.8 °F 76% 30.07 in 10.0 mi NW 17.3 mph 25.3 mph N/A   Overcast
6:34 AM 41.0 °F 31.9 °F 32.0 °F 70% 30.07 in 10.0 mi NW 19.6 mph 29.9 mph N/A   Overcast
6:55 AM 39.2 °F 28.5 °F 33.8 °F 81% 30.08 in 5.0 mi NW 24.2 mph 33.4 mph N/A   Haze
7:14 AM 39.2 °F 28.5 °F 32.0 °F 75% 30.09 in 10.0 mi NW 24.2 mph 32.2 mph N/A   Overcast
7:39 AM 39.2 °F 28.5 °F 32.0 °F 75% 30.09 in 10.0 mi NW 24.2 mph 29.9 mph N/A   Overcast
7:55 AM 41.0 °F 31.1 °F 32.0 °F 70% 30.10 in 10.0 mi NW 23.0 mph 36.8 mph N/A   Overcast
8:14 AM 41.0 °F 31.1 °F 32.0 °F 70% 30.11 in 10.0 mi NW 23.0 mph 32.2 mph N/A   Overcast
8:34 AM 41.0 °F 30.5 °F 32.0 °F 70% 30.12 in 10.0 mi NW 26.5 mph 36.8 mph N/A   Overcast
8:55 AM 41.0 °F 30.7 °F 32.0 °F 70% 30.14 in 10.0 mi NW 25.3 mph 35.7 mph N/A   Overcast
9:14 AM 41.0 °F 31.1 °F 32.0 °F 70% 30.14 in 10.0 mi NW 23.0 mph 33.4 mph N/A   Overcast
9:34 AM 41.0 °F 30.9 °F 32.0 °F 70% 30.15 in 10.0 mi NW 24.2 mph 33.4 mph N/A   Overcast
9:54 AM 42.8 °F 33.8 °F 32.0 °F 66% 30.15 in 10.0 mi NW 21.9 mph 29.9 mph N/A   Overcast
10:14 AM 42.8 °F 33.3 °F 32.0 °F 66% 30.16 in 10.0 mi NW 24.2 mph 32.2 mph N/A   Overcast
10:34 AM 42.8 °F 33.3 °F 32.0 °F 66% 30.17 in 10.0 mi NNW 24.2 mph 34.5 mph N/A   Overcast
10:54 AM 42.8 °F 34.3 °F 32.0 °F 66% 30.17 in 10.0 mi NW 19.6 mph 31.1 mph N/A   Overcast
11:14 AM 44.6 °F 35.7 °F 30.2 °F 57% 30.18 in 10.0 mi NW 24.2 mph 35.7 mph N/A   Overcast
11:34 AM 44.6 °F 35.9 °F 30.2 °F 57% 30.18 in 10.0 mi NW 23.0 mph 32.2 mph N/A   Mostly Cloudy
11:54 AM 42.8 °F 34.0 °F 30.2 °F 61% 30.20 in 10.0 mi NW 20.7 mph 35.7 mph N/A   Overcast
12:14 PM 44.6 °F 36.9 °F 30.2 °F 57% 30.21 in 10.0 mi NW 18.4 mph 29.9 mph N/A   Overcast
12:34 PM 44.6 °F 36.1 °F 30.2 °F 57% 30.21 in 10.0 mi NW 21.9 mph 33.4 mph N/A   Overcast
12:54 PM 44.6 °F 35.7 °F 30.2 °F 57% 30.21 in 10.0 mi NW 24.2 mph 33.4 mph N/A   Overcast
1:14 PM 46.4 °F 38.5 °F 30.2 °F 53% 30.21 in 10.0 mi NW 21.9 mph 31.1 mph N/A   Mostly Cloudy
1:34 PM 46.4 °F 38.1 °F 30.2 °F 53% 30.21 in 10.0 mi NW 24.2 mph 34.5 mph N/A   Mostly Cloudy
1:54 PM 48.2 °F - 30.2 °F 50% 30.21 in 10.0 mi NW 21.9 mph 32.2 mph N/A   Scattered Clouds
2:13 PM 48.2 °F - 30.2 °F 50% 30.20 in 10.0 mi NW 21.9 mph 29.9 mph N/A   Mostly Cloudy
2:34 PM 50.0 °F - 30.2 °F 47% 30.21 in 10.0 mi NW 21.9 mph 32.2 mph N/A   Mostly Cloudy
2:54 PM 50.0 °F - 28.4 °F 43% 30.22 in 10.0 mi NW 20.7 mph 28.8 mph N/A   Mostly Cloudy
3:14 PM 48.2 °F - 30.2 °F 50% 30.22 in 10.0 mi WNW 23.0 mph 28.8 mph N/A   Overcast
3:34 PM 48.2 °F - 28.4 °F 46% 30.22 in 10.0 mi NW 17.3 mph 26.5 mph N/A   Overcast
3:54 PM 48.2 °F - 28.4 °F 46% 30.21 in 10.0 mi NNW 17.3 mph 27.6 mph N/A   Mostly Cloudy
4:14 PM 48.2 °F - 28.4 °F 46% 30.22 in 10.0 mi NW 18.4 mph 25.3 mph N/A   Mostly Cloudy
4:34 PM 50.0 °F - 28.4 °F 43% 30.23 in 10.0 mi NW 20.7 mph 26.5 mph N/A   Mostly Cloudy
4:54 PM 48.2 °F - 28.4 °F 46% 30.23 in 10.0 mi NNW 16.1 mph 25.3 mph N/A   Mostly Cloudy
5:14 PM 48.2 °F - 28.4 °F 46% 30.24 in 10.0 mi NW 18.4 mph 29.9 mph N/A   Scattered Clouds
5:34 PM 46.4 °F 39.2 °F 28.4 °F 50% 30.25 in 10.0 mi NW 18.4 mph 24.2 mph N/A   Mostly Cloudy
5:54 PM 44.6 °F 38.4 °F 28.4 °F 53% 30.25 in 10.0 mi NW 12.7 mph 25.3 mph N/A   Overcast
6:14 PM 44.6 °F 36.9 °F 28.4 °F 53% 30.26 in 10.0 mi NW 18.4 mph 24.2 mph N/A   Overcast
6:34 PM 44.6 °F 37.4 °F 28.4 °F 53% 30.26 in 10.0 mi NNW 16.1 mph 24.2 mph N/A   Mostly Cloudy
6:54 PM 44.6 °F 37.8 °F 28.4 °F 53% 30.26 in 10.0 mi NW 15.0 mph 23.0 mph N/A   Overcast
7:14 PM 44.6 °F 37.8 °F 28.4 °F 53% 30.27 in 10.0 mi NW 15.0 mph 20.7 mph N/A   Overcast
7:34 PM 44.6 °F 38.8 °F 28.4 °F 53% 30.27 in 10.0 mi NW 11.5 mph 20.7 mph N/A   Overcast
7:54 PM 44.6 °F 38.1 °F 28.4 °F 53% 30.28 in 10.0 mi NW 13.8 mph 21.9 mph N/A   Overcast
8:14 PM 44.6 °F 39.2 °F 28.4 °F 53% 30.28 in 10.0 mi NNW 10.4 mph 23.0 mph N/A   Overcast
8:34 PM 44.6 °F 39.7 °F 26.6 °F 49% 30.28 in 10.0 mi NNW 9.2 mph 16.1 mph N/A   Overcast
8:55 PM 42.8 °F 37.0 °F 28.4 °F 57% 30.28 in 10.0 mi NW 10.4 mph - N/A   Overcast
9:14 PM 42.8 °F 36.2 °F 28.4 °F 57% 30.29 in 10.0 mi NW 12.7 mph 17.3 mph N/A   Overcast
9:34 PM 42.8 °F 36.2 °F 26.6 °F 53% 30.28 in 10.0 mi NW 12.7 mph 17.3 mph N/A   Overcast
9:54 PM 42.8 °F 37.5 °F 28.4 °F 57% 30.28 in 10.0 mi NW 9.2 mph - N/A   Overcast
10:14 PM 42.8 °F 36.6 °F 26.6 °F 53% 30.28 in 10.0 mi NW 11.5 mph - N/A   Overcast
10:34 PM 42.8 °F 37.0 °F 26.6 °F 53% 30.28 in 10.0 mi NW 10.4 mph - N/A   Mostly Cloudy
10:54 PM 41.0 °F 35.2 °F 26.6 °F 57% 30.27 in 10.0 mi NW 9.2 mph - N/A   Scattered Clouds
11:14 PM 39.2 °F 33.0 °F 26.6 °F 61% 30.27 in 10.0 mi NW 9.2 mph - N/A   Clear
11:34 PM 39.2 °F 32.5 °F 26.6 °F 61% 30.27 in 10.0 mi NW 10.4 mph - N/A   Clear
11:54 PM 37.4 °F 32.1 °F 26.6 °F 65% 30.28 in 10.0 mi NW 6.9 mph - N/A   Clear